Regional Weather Roundup
Issued by NWS Huntsville, AL

Home | Current Version | Previous Version | Text Only | Print | Product List | Glossary On
Versions: 1 2 3 4 5 6 7 8 9 10 11 12 13 14 15 16 17 18 19 20 21 22 23 24 25 26 27 28 29 30 31 32 33 34 35 36 37 38 39 40 41 42 43 44 45 46 47 48 49 50
000
ASUS44 KHUN 100110
RWRHUN

WEATHER ROUNDUP FOR THE TENNESSEE VALLEY
NATIONAL WEATHER SERVICE HUNTSVILLE AL
700 PM CST FRI DEC 09 2016

ALZ001>004-100200-
NORTHWEST ALABAMA

CITY           SKY/WX    TMP DP  RH WIND       PRES   REMARKS
COURTLAND HCN    N/A     28 N/A N/A CALM        N/A
RUSSELLVILLE     N/A     27 N/A N/A MISG        N/A
SHOALS AIRPORT CLEAR     32  18  56 NW5       30.56R WCI  27
SHOALS TVA RES   N/A     34 N/A N/A MISG        N/A
$$

ALZ005>007-016-100200-
NORTH CENTRAL ALABAMA

CITY           SKY/WX    TMP DP  RH WIND       PRES   REMARKS
CULLMAN AG STN   N/A     28 N/A N/A N3          N/A
DECATUR AP     CLEAR     29  22  75 N6        30.55R WCI  23
HUNTSVILLE AP  CLEAR     32  21  64 N5        30.53R WCI  27
MERIDIANVILLE  CLEAR     30  21  69 N3        30.53R
REDSTONE ARSN  CLEAR     30  19  61 N5        30.52R WCI  25
VINEMONT AP    FAIR      28  18  65 N3        30.52R
$$

ALZ008>010-100200-
NORTHEAST ALABAMA

CITY           SKY/WX    TMP DP  RH WIND       PRES   REMARKS
ALBERTVILLE    CLEAR     32  27  80 N5        30.48S WCI  27
FORT PAYNE     CLEAR     30  18  59 E3        30.49R
SCOTTSBORO AP  CLEAR     30  19  64 CALM      30.53R
SCOTTSBORO HCN   N/A     27 N/A N/A MISG        N/A
$$

TNZ076-096-097-100200-
SOUTHEASTERN MIDDLE TENNESSEE

CITY           SKY/WX    TMP DP  RH WIND       PRES   REMARKS
TULLAHOMA      CLEAR     27  14  59 CALM      30.51S
WINCHESTER     CLEAR     28  18  64 CALM      30.52R
$$

...SURROUNDING SITES...

CITY           SKY/WX    TMP DP  RH WIND       PRES   REMARKS
ATLANTA        CLEAR     35  17  47 NW13      30.43F WCI  26
ANNISTON       CLEAR     36  16  44 N3        30.49S
BIRMINGHAM     CLEAR     32  19  58 N3        30.53R
CHATTANOOGA    CLEAR     33  15  47 N7        30.52R WCI  27
CORINTH        FAIR      30  18  59 CALM      30.55S
DALTON         CLEAR     30  19  64 NW5       30.50R WCI  25
GADSDEN        CLEAR     32  21  64 N3        30.51S
GOLDEN TRNGL   CLEAR     34  18  51 N5        30.50S WCI  30
HALEYVILLE     FAIR      28  22  78 CALM      30.54R
JACKSON TN     CLEAR     26  18  71 CALM      30.58R
MEMPHIS        CLEAR     30  19  63 N5        30.57S WCI  25
NASHVILLE      CLEAR     29  16  58 N6        30.56R WCI  23
OXFORD MS      FAIR      27  19  74 CALM      30.58S
ROME           CLEAR     30  18  60 CALM      30.49R
SAVANNAH       CLEAR     27  21  80 CALM      30.55S
TUPELO         CLEAR     30  18  60 CALM      30.56R
TUSCALOOSA     CLEAR     32  21  64 NE3       30.54R
$$

...GULF COAST WEATHER...

CITY           SKY/WX    TMP DP  RH WIND       PRES   REMARKS
GULFPORT       PTCLDY    43  24  47 N6        30.48S
PASCAGOULA     PTCLDY    35  30  82 CALM      30.50R
MOBILE         CLEAR     39  21  48 N9        30.49S WCI  33
GULF SHORES    PTCLDY    40  24  51 N3        30.48R
PENSACOLA      PTCLDY    40  24  53 N6        30.47R
DESTIN         CLEAR     49  23  36 N13       30.45S
PANAMA CITY    CLEAR     45  25  44 N6        30.44R
APPALACHICOLA  CLEAR     47  23  38 N10       30.41R
$$




USA.gov is the U.S. government's official web portal to all federal, state and local government web resources and services.